When you browse on this site, cookies collect data to enhance your experience and personalize the content and advertising you see.
Visit our Privacy Policy to learn more. By continuing to use the site, you agree to this use of cookies and data.

Meteo pe oră la Dzierdziowka

Astăzi, 19 Septembrie, Sâmbătă

Timp Temperatura Precipitaţii Vânt Presiune Umiditate
00:00 +10°C° 0 mm 1 m/s 757 mmHg 65%
01:00 +10°C° 0 mm 1 m/s 757 mmHg 67%
02:00 +10°C° 0 mm 1 m/s 757 mmHg 69%
03:00 +9°C° 0 mm 0 m/s 757 mmHg 70%
04:00 +8°C° 0 mm 0 m/s 757 mmHg 72%
05:00 +9°C° 0 mm 0 m/s 757 mmHg 70%
06:00 +10°C° 0 mm 0 m/s 757 mmHg 67%
07:00 +11°C° 0 mm 0 m/s 757 mmHg 63%
08:00 +13°C° 0 mm 0 m/s 757 mmHg 58%
09:00 +15°C° 0 mm 0 m/s 756 mmHg 53%
10:00 +17°C° 0 mm 0 m/s 756 mmHg 47%
11:00 +17°C° 0 mm 0 m/s 756 mmHg 44%
12:00 +20°C° 0 mm 1 m/s 756 mmHg 40%
13:00 +21°C° 0 mm 1 m/s 755 mmHg 37%
14:00 +21°C° 0 mm 1 m/s 755 mmHg 40%
15:00 +20°C° 0 mm 1 m/s 755 mmHg 43%
16:00 +20°C° 0 mm 1 m/s 754 mmHg 46%
17:00 +18°C° 0 mm 1 m/s 754 mmHg 49%
18:00 +16°C° 0 mm 1 m/s 754 mmHg 51%
19:00 +14°C° 0 mm 2 m/s 754 mmHg 54%
20:00 +14°C° 0 mm 2 m/s 754 mmHg 56%
21:00 +13°C° 0 mm 2 m/s 754 mmHg 57%
22:00 +13°C° 0 mm 2 m/s 754 mmHg 59%
23:00 +12°C° 0 mm 2 m/s 754 mmHg 60%

Mâine, 20 Septembrie, Duminică

Timp Temperatura Precipitaţii Vânt Presiune Umiditate
00:00 +12°C° 0 mm 2 m/s 754 mmHg 60%
01:00 +12°C° 0 mm 2 m/s 754 mmHg 61%
02:00 +10°C° 0 mm 2 m/s 754 mmHg 62%
03:00 +10°C° 0 mm 2 m/s 754 mmHg 63%
04:00 +9°C° 0 mm 2 m/s 753 mmHg 64%
05:00 +10°C° 0 mm 2 m/s 754 mmHg 63%
06:00 +12°C° 0 mm 2 m/s 754 mmHg 63%
07:00 +11°C° 0 mm 3 m/s 754 mmHg 62%
08:00 +13°C° 0 mm 3 m/s 754 mmHg 58%
09:00 +16°C° 0 mm 3 m/s 754 mmHg 54%
10:00 +18°C° 0 mm 4 m/s 754 mmHg 50%
11:00 +19°C° 0 mm 4 m/s 753 mmHg 49%
12:00 +19°C° 0 mm 4 m/s 753 mmHg 48%
13:00 +20°C° 0 mm 4 m/s 753 mmHg 47%
14:00 +20°C° 0 mm 4 m/s 752 mmHg 50%
15:00 +20°C° 0 mm 3 m/s 752 mmHg 53%
16:00 +20°C° 0 mm 3 m/s 752 mmHg 56%
17:00 +18°C° 0 mm 3 m/s 752 mmHg 59%
18:00 +16°C° 0 mm 3 m/s 752 mmHg 63%
19:00 +14°C° 0 mm 3 m/s 752 mmHg 66%
20:00 +14°C° 0 mm 3 m/s 752 mmHg 66%
21:00 +13°C° 0 mm 3 m/s 752 mmHg 66%
22:00 +13°C° 0 mm 3 m/s 752 mmHg 66%
23:00 +13°C° 0 mm 3 m/s 752 mmHg 67%

Poimâine, 21 Septembrie, Luni

Timp Temperatura Precipitaţii Vânt Presiune Umiditate
00:00 +12°C° 0 mm 3 m/s 752 mmHg 69%
01:00 +13°C° 0 mm 2 m/s 752 mmHg 70%
02:00 +12°C° 0 mm 2 m/s 751 mmHg 72%
03:00 +12°C° 0 mm 2 m/s 751 mmHg 74%
04:00 +12°C° 0 mm 2 m/s 751 mmHg 76%
05:00 +12°C° 0 mm 2 m/s 751 mmHg 74%
06:00 +13°C° 0 mm 2 m/s 751 mmHg 73%
07:00 +14°C° 0 mm 1 m/s 751 mmHg 72%
08:00 +16°C° 0 mm 1 m/s 751 mmHg 64%
09:00 +19°C° 0 mm 1 m/s 751 mmHg 56%
10:00 +21°C° 0 mm 1 m/s 752 mmHg 49%
11:00 +23°C° 0 mm 2 m/s 751 mmHg 45%
12:00 +24°C° 0 mm 2 m/s 751 mmHg 42%
13:00 +25°C° 0 mm 2 m/s 751 mmHg 38%
14:00 +25°C° 0 mm 1 m/s 751 mmHg 41%
15:00 +25°C° 0 mm 1 m/s 751 mmHg 43%
16:00 +24°C° 0 mm 1 m/s 751 mmHg 46%
17:00 +22°C° 0 mm 1 m/s 751 mmHg 50%
18:00 +20°C° 0 mm 1 m/s 751 mmHg 53%
19:00 +18°C° 0 mm 1 m/s 751 mmHg 56%
20:00 +18°C° 0 mm 1 m/s 751 mmHg 58%
21:00 +16°C° 0 mm 1 m/s 751 mmHg 61%
22:00 +16°C° 0 mm 1 m/s 751 mmHg 63%
23:00 +16°C° 0 mm 1 m/s 750 mmHg 64%

22 Septembrie, Marţi

Timp Temperatura Precipitaţii Vânt Presiune Umiditate
00:00 +15°C° 0 mm 1 m/s 750 mmHg 66%
01:00 +15°C° 0 mm 1 m/s 750 mmHg 67%
02:00 +15°C° 0 mm 1 m/s 750 mmHg 68%
03:00 +14°C° 0 mm 1 m/s 750 mmHg 69%
04:00 +14°C° 0 mm 2 m/s 750 mmHg 69%
05:00 +15°C° 0 mm 2 m/s 750 mmHg 68%
06:00 +16°C° 0 mm 2 m/s 750 mmHg 66%
07:00 +16°C° 0 mm 2 m/s 750 mmHg 64%
08:00 +19°C° 0 mm 2 m/s 750 mmHg 57%
09:00 +21°C° 0 mm 2 m/s 750 mmHg 50%
10:00 +24°C° 0 mm 2 m/s 750 mmHg 44%
11:00 +25°C° 0 mm 3 m/s 750 mmHg 41%
12:00 +26°C° 0 mm 3 m/s 749 mmHg 39%
13:00 +28°C° 0 mm 3 m/s 749 mmHg 36%
14:00 +27°C° 0 mm 3 m/s 748 mmHg 39%
15:00 +27°C° 0 mm 3 m/s 748 mmHg 42%
16:00 +26°C° 0 mm 3 m/s 747 mmHg 45%
17:00 +24°C° 0 mm 3 m/s 747 mmHg 49%
18:00 +21°C° 0 mm 3 m/s 747 mmHg 52%
19:00 +19°C° 0 mm 3 m/s 747 mmHg 56%
20:00 +19°C° 0 mm 3 m/s 747 mmHg 57%
21:00 +18°C° 0 mm 3 m/s 747 mmHg 59%
22:00 +17°C° 0 mm 3 m/s 747 mmHg 60%
23:00 +17°C° 0 mm 3 m/s 747 mmHg 62%

23 Septembrie, Miercuri

Timp Temperatura Precipitaţii Vânt Presiune Umiditate
00:00 +16°C° 0 mm 3 m/s 746 mmHg 63%
01:00 +16°C° 0 mm 3 m/s 746 mmHg 65%
02:00 +14°C° 0 mm 3 m/s 746 mmHg 66%
03:00 +14°C° 0 mm 3 m/s 746 mmHg 66%
04:00 +14°C° 0 mm 3 m/s 745 mmHg 67%
05:00 +16°C° 0 mm 3 m/s 745 mmHg 65%
06:00 +16°C° 0 mm 3 m/s 745 mmHg 64%
07:00 +17°C° 0 mm 3 m/s 745 mmHg 62%
08:00 +20°C° 0 mm 4 m/s 745 mmHg 55%
09:00 +22°C° 0 mm 4 m/s 745 mmHg 49%
10:00 +25°C° 0 mm 5 m/s 744 mmHg 42%
11:00 +26°C° 0 mm 5 m/s 744 mmHg 42%
12:00 +27°C° 0 mm 6 m/s 744 mmHg 42%
13:00 +28°C° 0 mm 6 m/s 743 mmHg 42%
14:00 +27°C° 0 mm 6 m/s 743 mmHg 43%
15:00 +26°C° 0 mm 5 m/s 743 mmHg 45%
16:00 +26°C° 0 mm 5 m/s 742 mmHg 46%
17:00 +23°C° 0 mm 4 m/s 742 mmHg 50%
18:00 +21°C° 0 mm 4 m/s 742 mmHg 53%
19:00 +20°C° 0 mm 3 m/s 743 mmHg 57%
20:00 +19°C° 0 mm 3 m/s 742 mmHg 58%
21:00 +18°C° 0 mm 3 m/s 742 mmHg 60%
22:00 +18°C° 0 mm 3 m/s 742 mmHg 61%
23:00 +17°C° 0 mm 3 m/s 742 mmHg 62%

24 Septembrie, Joi

Timp Temperatura Precipitaţii Vânt Presiune Umiditate
00:00 +17°C° 0 mm 3 m/s 742 mmHg 62%
01:00 +17°C° 0 mm 3 m/s 742 mmHg 62%
02:00 +17°C° 0 mm 2 m/s 742 mmHg 64%
03:00 +17°C° 0 mm 2 m/s 742 mmHg 65%
04:00 +16°C° 0 mm 2 m/s 742 mmHg 66%
05:00 +17°C° 0 mm 2 m/s 742 mmHg 67%
06:00 +17°C° 0 mm 2 m/s 742 mmHg 67%
07:00 +18°C° 0 mm 2 m/s 742 mmHg 68%
08:00 +20°C° 0 mm 2 m/s 743 mmHg 65%
09:00 +21°C° 0 mm 2 m/s 743 mmHg 62%
10:00 +24°C° 0 mm 3 m/s 743 mmHg 58%
11:00 +25°C° 0 mm 3 m/s 743 mmHg 56%
12:00 +26°C° 0 mm 3 m/s 743 mmHg 53%
13:00 +27°C° 0 mm 3 m/s 743 mmHg 50%
14:00 +26°C° 0.3 mm 2 m/s 743 mmHg 53%
15:00 +26°C° 0.3 mm 2 m/s 742 mmHg 56%
16:00 +25°C° 0.3 mm 2 m/s 742 mmHg 59%
17:00 +23°C° 0.3 mm 2 m/s 742 mmHg 65%
18:00 +21°C° 0.3 mm 3 m/s 742 mmHg 72%
19:00 +19°C° 0.3 mm 3 m/s 742 mmHg 79%
20:00 +19°C° 0 mm 3 m/s 742 mmHg 80%
21:00 +18°C° 0 mm 3 m/s 742 mmHg 80%
22:00 +18°C° 0 mm 4 m/s 742 mmHg 81%
23:00 +18°C° 0 mm 4 m/s 742 mmHg 81%
Arată mai mult